Time,TemperatureF,DewpointF,PressureIn,WindDirection,WindDirectionDegrees,WindSpeedMPH,WindSpeedGustMPH,Humidity,HourlyPrecipIn,Conditions,Clouds,dailyrainin,SolarRadiationWatts/m^2,SoftwareType,DateUTC
2013-03-06 00:01:00,15.6,-99.9,30.38,NNW,332,4.0,5.4,84,0.00,,,0.00,0.02,,2013-03-06 06:01:00,
2013-03-06 00:11:00,15.5,-99.9,30.39,NNW,340,3.0,5.4,84,0.00,,,0.00,0.024,,2013-03-06 06:11:00,
2013-03-06 00:21:00,15.4,-99.9,30.38,North,3,3.0,5.4,84,0.00,,,0.00,0.034,,2013-03-06 06:21:00,
2013-03-06 00:31:00,15.2,-99.9,30.38,North,9,4.0,7.1,82,0.00,,,0.00,0,,2013-03-06 06:31:00,
2013-03-06 00:41:00,15.0,-99.9,30.38,NNW,334,0.0,2.1,83,0.00,,,0.00,0,,2013-03-06 06:41:00,
2013-03-06 00:51:00,15.1,-99.9,30.38,NNE,20,2.0,3.8,84,0.00,,,0.00,0,,2013-03-06 06:51:00,
2013-03-06 01:01:00,14.9,-99.9,30.38,North,7,1.0,3.8,84,0.00,,,0.00,0,,2013-03-06 07:01:00,
2013-03-06 01:11:00,14.9,-99.9,30.38,NW,317,1.0,3.8,84,0.00,,,0.00,0,,2013-03-06 07:11:00,
2013-03-06 01:21:00,14.9,-99.9,30.38,NNW,328,1.0,3.8,84,0.00,,,0.00,0,,2013-03-06 07:21:00,
2013-03-06 01:31:00,15.0,-99.9,30.38,NW,325,3.0,3.8,84,0.00,,,0.00,0.007,,2013-03-06 07:31:00,
2013-03-06 01:41:00,15.0,-99.9,30.38,WNW,303,1.0,3.8,85,0.00,,,0.00,0,,2013-03-06 07:41:00,
2013-03-06 01:51:00,14.9,-99.9,30.38,North,349,3.0,5.4,85,0.00,,,0.00,0,,2013-03-06 07:51:00,
2013-03-06 02:01:00,14.9,-99.9,30.38,North,2,2.0,3.8,84,0.00,,,0.00,0,,2013-03-06 08:01:00,
2013-03-06 02:11:00,14.8,-99.9,30.38,North,1,2.0,3.8,85,0.00,,,0.00,0.02,,2013-03-06 08:11:00,
2013-03-06 02:21:00,14.7,-99.9,30.38,NW,325,2.0,3.8,86,0.00,,,0.00,0,,2013-03-06 08:21:00,
2013-03-06 02:31:00,14.8,-99.9,30.38,NE,34,3.0,5.4,85,0.00,,,0.00,0.003,,2013-03-06 08:31:00,
2013-03-06 02:41:00,14.7,-99.9,30.38,NW,311,2.0,5.4,85,0.00,,,0.00,0,,2013-03-06 08:41:00,
2013-03-06 02:51:00,14.6,-99.9,30.38,NW,322,3.0,5.4,85,0.00,,,0.00,0.003,,2013-03-06 08:51:00,
2013-03-06 03:01:00,14.5,-99.9,30.38,North,0,2.0,3.8,85,0.00,,,0.00,0.003,,2013-03-06 09:01:00,
2013-03-06 03:11:00,14.5,-99.9,30.37,NW,326,4.0,5.4,85,0.00,,,0.00,0.007,,2013-03-06 09:11:00,
2013-03-06 03:21:00,14.3,-99.9,30.37,NW,321,2.0,3.8,84,0.00,,,0.00,0,,2013-03-06 09:21:00,
2013-03-06 03:31:00,13.2,-99.9,30.37,NW,319,3.0,5.4,86,0.00,,,0.00,0.003,,2013-03-06 09:31:00,
2013-03-06 03:41:00,13.2,-99.9,30.37,West,278,3.0,3.8,87,0.00,,,0.00,0,,2013-03-06 09:41:00,
2013-03-06 03:51:00,12.9,-99.9,30.37,NNW,338,1.0,2.1,87,0.00,,,0.00,0,,2013-03-06 09:51:00,
2013-03-06 04:01:00,13.1,-99.9,30.37,NNW,339,2.0,5.4,87,0.00,,,0.00,0,,2013-03-06 10:01:00,
2013-03-06 04:11:00,12.7,-99.9,30.37,WNW,303,2.0,3.8,86,0.00,,,0.00,0.003,,2013-03-06 10:11:00,
2013-03-06 04:21:00,12.7,-99.9,30.38,WNW,291,0.0,2.1,87,0.00,,,0.00,0,,2013-03-06 10:21:00,
2013-03-06 04:31:00,12.8,-99.9,30.38,SW,227,0.0,0.0,87,0.00,,,0.00,0,,2013-03-06 10:31:00,
2013-03-06 04:41:00,13.0,-99.9,30.38,WNW,285,2.0,3.8,87,0.00,,,0.00,0,,2013-03-06 10:41:00,
2013-03-06 04:51:00,12.9,-99.9,30.38,SSW,202,0.0,0.0,87,0.00,,,0.00,0,,2013-03-06 10:51:00,
2013-03-06 05:01:00,12.9,-99.9,30.39,WSW,243,2.0,3.8,87,0.00,,,0.00,0,,2013-03-06 11:01:00,
2013-03-06 05:11:00,12.7,-99.9,30.40,SSE,156,0.0,0.0,87,0.00,,,0.00,0,,2013-03-06 11:11:00,
2013-03-06 05:21:00,12.7,-99.9,30.40,South,181,0.0,0.0,87,0.00,,,0.00,0,,2013-03-06 11:21:00,
2013-03-06 05:31:00,12.8,-99.9,30.40,SW,221,0.0,0.0,87,0.00,,,0.00,0,,2013-03-06 11:31:00,
2013-03-06 05:41:00,12.6,-99.9,30.40,NW,326,0.0,0.0,88,0.00,,,0.00,0,,2013-03-06 11:41:00,
2013-03-06 05:51:00,12.8,-99.9,30.40,WSW,250,1.0,2.1,87,0.00,,,0.00,0,,2013-03-06 11:51:00,
2013-03-06 06:01:00,12.7,-99.9,30.40,SSW,209,0.0,0.0,87,0.00,,,0.00,0,,2013-03-06 12:01:00,
2013-03-06 06:11:00,12.4,-99.9,30.40,SW,227,0.0,2.1,87,0.00,,,0.00,0,,2013-03-06 12:11:00,
2013-03-06 06:21:00,12.4,-99.9,30.40,SSW,207,0.0,0.0,88,0.00,,,0.00,0,,2013-03-06 12:21:00,
2013-03-06 06:31:00,12.2,-99.9,30.40,SW,217,0.0,2.1,88,0.00,,,0.00,0,,2013-03-06 12:31:00,
2013-03-06 06:41:00,12.1,-99.9,30.40,WSW,246,2.0,3.8,88,0.00,,,0.00,0.071,,2013-03-06 12:41:00,
2013-03-06 06:51:00,12.4,-99.9,30.40,West,263,2.0,2.1,87,0.00,,,0.00,0.814,,2013-03-06 12:51:00,
2013-03-06 07:01:00,12.4,-99.9,30.40,SW,216,1.0,2.1,87,0.00,,,0.00,2.838,,2013-03-06 13:01:00,
2013-03-06 07:11:00,12.4,-99.9,30.40,SW,215,3.0,3.8,87,0.00,,,0.00,5.9,,2013-03-06 13:11:00,
2013-03-06 07:21:00,12.6,-99.9,30.40,West,261,3.0,3.8,87,0.00,,,0.00,11.21,,2013-03-06 13:21:00,
2013-03-06 07:31:00,12.8,-99.9,30.40,SSW,212,2.0,3.8,87,0.00,,,0.00,21.07,,2013-03-06 13:31:00,
2013-03-06 07:41:00,12.6,-99.9,30.40,WSW,249,3.0,3.8,87,0.00,,,0.00,29.78,,2013-03-06 13:41:00,
2013-03-06 07:51:00,13.2,-99.9,30.40,SW,236,0.0,0.0,87,0.00,,,0.00,39.65,,2013-03-06 13:51:00,
2013-03-06 08:01:00,13.4,-99.9,30.40,West,274,2.0,3.8,86,0.00,,,0.00,52.53,,2013-03-06 14:01:00,
2013-03-06 08:11:00,13.8,-99.9,30.40,WSW,243,1.0,2.1,86,0.00,,,0.00,50.38,,2013-03-06 14:11:00,
2013-03-06 08:21:00,14.6,-99.9,30.40,SW,224,1.0,2.1,85,0.00,,,0.00,66.9,,2013-03-06 14:21:00,
2013-03-06 08:31:00,15.0,-99.9,30.40,WSW,248,0.0,0.0,84,0.00,,,0.00,117.7,,2013-03-06 14:31:00,
2013-03-06 08:41:00,15.4,-99.9,30.40,SSE,163,1.0,2.1,82,0.00,,,0.00,116.5,,2013-03-06 14:41:00,
2013-03-06 08:51:00,16.0,-99.9,30.40,West,275,2.0,3.8,80,0.00,,,0.00,161.5,,2013-03-06 14:51:00,
2013-03-06 09:01:00,14.9,-99.9,30.40,WNW,289,2.0,3.8,83,0.00,,,0.00,190.1,,2013-03-06 15:01:00,
2013-03-06 09:11:00,15.3,-99.9,30.40,NNE,12,2.0,3.8,82,0.00,,,0.00,211.1,,2013-03-06 15:11:00,
2013-03-06 09:21:00,15.6,-99.9,30.40,North,351,2.0,3.8,81,0.00,,,0.00,245.2,,2013-03-06 15:21:00,
2013-03-06 09:31:00,16.3,-99.9,30.39,NE,56,4.0,5.4,79,0.00,,,0.00,281.9,,2013-03-06 15:31:00,
2013-03-06 09:41:00,16.6,-99.9,30.39,NE,43,3.0,3.8,79,0.00,,,0.00,308.5,,2013-03-06 15:41:00,
2013-03-06 09:51:00,16.8,-99.9,30.38,NE,35,4.0,5.4,78,0.00,,,0.00,380.6,,2013-03-06 15:51:00,
2013-03-06 10:01:00,18.0,-99.9,30.38,SE,144,3.0,5.4,75,0.00,,,0.00,358.4,,2013-03-06 16:01:00,
2013-03-06 10:11:00,19.6,-99.9,30.39,South,176,0.0,2.1,71,0.00,,,0.00,370,,2013-03-06 16:11:00,
2013-03-06 10:21:00,18.6,-99.9,30.38,East,92,2.0,3.8,73,0.00,,,0.00,451,,2013-03-06 16:21:00,
2013-03-06 10:31:00,21.0,-99.9,30.38,ESE,114,2.0,3.8,69,0.00,,,0.00,435.3,,2013-03-06 16:31:00,
2013-03-06 10:41:00,21.2,-99.9,30.38,SSE,147,1.0,3.8,69,0.00,,,0.00,476.3,,2013-03-06 16:41:00,
2013-03-06 10:51:00,21.1,-99.9,30.38,SE,139,4.0,5.4,69,0.00,,,0.00,461.3,,2013-03-06 16:51:00,
2013-03-06 11:01:00,21.9,-99.9,30.38,SSE,168,2.0,3.8,68,0.00,,,0.00,501.2,,2013-03-06 17:01:00,
2013-03-06 11:11:00,22.0,-99.9,30.38,SSE,164,3.0,7.1,67,0.00,,,0.00,498.7,,2013-03-06 17:11:00,
2013-03-06 11:21:00,20.2,-99.9,30.38,SE,124,3.0,3.8,71,0.00,,,0.00,512.5,,2013-03-06 17:21:00,
2013-03-06 11:31:00,22.0,-99.9,30.37,ESE,105,3.0,5.4,67,0.00,,,0.00,515.7,,2013-03-06 17:31:00,
2013-03-06 11:41:00,23.1,-99.9,30.37,SE,145,2.0,5.4,66,0.00,,,0.00,501.2,,2013-03-06 17:41:00,
2013-03-06 11:51:00,21.2,-99.9,30.37,ENE,74,3.0,5.4,70,0.01,,,0.01,492.6,,2013-03-06 17:51:00,
2013-03-06 12:01:00,20.9,-99.9,30.36,ENE,67,2.0,5.4,71,0.01,,,0.01,520,,2013-03-06 18:01:00,
2013-03-06 12:11:00,20.5,-99.9,30.36,NE,54,4.0,7.1,70,0.02,,,0.02,513.9,,2013-03-06 18:11:00,
2013-03-06 12:21:00,21.6,-99.9,30.36,ESE,111,4.0,8.8,69,0.03,,,0.03,525,,2013-03-06 18:21:00,
2013-03-06 12:31:00,21.6,-99.9,30.36,SSE,168,5.0,7.1,68,0.04,,,0.04,522.4,,2013-03-06 18:31:00,
2013-03-06 12:41:00,24.1,-99.9,30.35,SSE,155,6.0,8.8,62,0.05,,,0.05,634.3,,2013-03-06 18:41:00,
2013-03-06 12:51:00,22.8,-99.9,30.35,South,179,4.0,7.1,66,0.06,,,0.07,592.4,,2013-03-06 18:51:00,
2013-03-06 13:01:00,20.8,-99.9,30.35,SE,138,4.0,5.4,70,0.06,,,0.07,487,,2013-03-06 19:01:00,
2013-03-06 13:11:00,21.4,-99.9,30.34,NE,53,4.0,7.1,70,0.05,,,0.08,501.6,,2013-03-06 19:11:00,
2013-03-06 13:21:00,22.4,-99.9,30.33,SSE,155,3.0,7.1,68,0.05,,,0.08,569.2,,2013-03-06 19:21:00,
2013-03-06 13:31:00,21.5,-99.9,30.33,SE,137,5.0,7.1,69,0.05,,,0.09,543.8,,2013-03-06 19:31:00,
2013-03-06 13:41:00,22.8,-99.9,30.32,South,174,4.0,7.1,66,0.04,,,0.09,571.3,,2013-03-06 19:41:00,
2013-03-06 13:51:00,23.6,-99.9,30.32,SE,142,6.0,8.8,66,0.02,,,0.09,616.4,,2013-03-06 19:51:00,
2013-03-06 14:01:00,22.2,-99.9,30.32,SSW,205,5.0,7.1,69,0.02,,,0.09,544.9,,2013-03-06 20:01:00,
2013-03-06 14:11:00,23.2,-99.9,30.32,South,176,4.0,5.4,67,0.01,,,0.09,481.1,,2013-03-06 20:11:00,
2013-03-06 14:21:00,22.6,-99.9,30.31,ESE,113,5.0,7.1,70,0.01,,,0.09,453,,2013-03-06 20:21:00,
2013-03-06 14:31:00,21.8,-99.9,30.31,ESE,116,5.0,8.8,72,0.00,,,0.09,438.9,,2013-03-06 20:31:00,
2013-03-06 14:41:00,22.1,-99.9,30.31,ESE,116,5.0,7.1,70,0.00,,,0.09,414.7,,2013-03-06 20:41:00,
2013-03-06 14:51:00,21.8,-99.9,30.31,SSW,194,3.0,3.8,73,0.00,,,0.09,348.8,,2013-03-06 20:51:00,
2013-03-06 15:01:00,21.9,-99.9,30.30,ENE,68,6.0,8.8,72,0.00,,,0.09,340.4,,2013-03-06 21:01:00,
2013-03-06 15:11:00,20.6,-99.9,30.30,SE,126,5.0,7.1,75,0.00,,,0.09,356.4,,2013-03-06 21:11:00,
2013-03-06 15:21:00,21.3,-99.9,30.30,NE,37,3.0,7.1,75,0.00,,,0.09,302.4,,2013-03-06 21:21:00,
2013-03-06 15:31:00,20.7,-99.9,30.30,SE,135,6.0,10.5,77,0.00,,,0.09,301.3,,2013-03-06 21:31:00,
2013-03-06 15:41:00,22.8,-99.9,30.30,ESE,104,4.0,7.1,70,0.00,,,0.09,627.2,,2013-03-06 21:41:00,
2013-03-06 15:51:00,21.9,-99.9,30.30,ESE,112,5.0,7.1,71,0.00,,,0.09,272.1,,2013-03-06 21:51:00,
2013-03-06 16:01:00,20.4,-99.9,30.29,SSE,165,5.0,8.8,75,0.00,,,0.09,198.6,,2013-03-06 22:01:00,
2013-03-06 16:11:00,19.9,-99.9,30.29,SE,143,7.0,8.8,77,0.00,,,0.09,205.3,,2013-03-06 22:11:00,
2013-03-06 16:21:00,19.5,-99.9,30.29,ESE,113,6.0,10.5,77,0.00,,,0.09,186.1,,2013-03-06 22:21:00,
2013-03-06 16:31:00,19.6,-99.9,30.28,ENE,77,5.0,7.1,79,0.00,,,0.09,155.9,,2013-03-06 22:31:00,
2013-03-06 16:41:00,20.1,-99.9,30.28,South,169,6.0,10.5,76,0.00,,,0.09,156.9,,2013-03-06 22:41:00,
2013-03-06 16:51:00,19.2,-99.9,30.28,SSE,157,4.0,8.8,77,0.00,,,0.09,120.6,,2013-03-06 22:51:00,
2013-03-06 17:01:00,19.0,-99.9,30.28,ESE,111,4.0,7.1,77,0.00,,,0.09,129.5,,2013-03-06 23:01:00,
2013-03-06 17:11:00,18.7,-99.9,30.27,ESE,118,2.0,5.4,78,0.00,,,0.09,121.4,,2013-03-06 23:11:00,
2013-03-06 17:21:00,18.7,-99.9,30.27,East,98,6.0,8.8,78,0.00,,,0.09,114.1,,2013-03-06 23:21:00,
2013-03-06 17:31:00,18.8,-99.9,30.27,SE,126,5.0,8.8,79,0.00,,,0.09,84,,2013-03-06 23:31:00,
2013-03-06 17:41:00,18.5,-99.9,30.27,SE,138,6.0,10.5,80,0.00,,,0.09,46.95,,2013-03-06 23:41:00,
2013-03-06 17:51:00,18.5,-99.9,30.27,ESE,111,3.0,3.8,81,0.00,,,0.09,35.18,,2013-03-06 23:51:00,
2013-03-06 18:01:00,18.5,-99.9,30.26,ESE,119,3.0,5.4,82,0.00,,,0.09,21.62,,2013-03-07 00:01:00,
2013-03-06 18:11:00,18.2,-99.9,30.25,SE,125,6.0,8.8,82,0.00,,,0.09,11.71,,2013-03-07 00:11:00,
2013-03-06 18:21:00,18.2,-99.9,30.26,ESE,107,4.0,7.1,83,0.00,,,0.09,4.067,,2013-03-07 00:21:00,
2013-03-06 18:31:00,18.1,-99.9,30.26,NE,55,4.0,5.4,83,0.00,,,0.09,1.627,,2013-03-07 00:31:00,
2013-03-06 18:41:00,18.1,-99.9,30.26,ESE,121,3.0,3.8,83,0.00,,,0.09,0.407,,2013-03-07 00:41:00,
2013-03-06 18:51:00,17.9,-99.9,30.26,SE,133,7.0,8.8,83,0.00,,,0.09,0.058,,2013-03-07 00:51:00,
2013-03-06 19:01:00,17.7,-99.9,30.26,ESE,103,5.0,10.5,84,0.00,,,0.09,0.003,,2013-03-07 01:01:00,
2013-03-06 19:11:00,17.7,-99.9,30.26,SSE,150,4.0,8.8,84,0.00,,,0.09,0.034,,2013-03-07 01:11:00,
2013-03-06 19:21:00,17.6,-99.9,30.25,SE,130,2.0,5.4,84,0.00,,,0.09,0,,2013-03-07 01:21:00,
2013-03-06 19:31:00,17.4,-99.9,30.25,South,187,4.0,7.1,83,0.00,,,0.09,0.051,,2013-03-07 01:31:00,
2013-03-06 19:41:00,17.4,-99.9,30.26,ESE,110,5.0,7.1,84,0.00,,,0.09,0.024,,2013-03-07 01:41:00,
2013-03-06 19:51:00,17.4,-99.9,30.26,East,82,4.0,7.1,85,0.00,,,0.09,0.024,,2013-03-07 01:51:00,
2013-03-06 20:01:00,17.3,-99.9,30.26,SE,125,5.0,8.8,85,0.00,,,0.09,0.027,,2013-03-07 02:01:00,
2013-03-06 20:11:00,17.2,-99.9,30.27,SE,137,4.0,5.4,85,0.00,,,0.09,0.024,,2013-03-07 02:11:00,
2013-03-06 20:21:00,17.1,-99.9,30.27,East,99,4.0,7.1,85,0.00,,,0.09,0.024,,2013-03-07 02:21:00,
2013-03-06 20:31:00,17.0,-99.9,30.27,SE,130,5.0,7.1,85,0.00,,,0.09,0.003,,2013-03-07 02:31:00,
2013-03-06 20:41:00,16.8,-99.9,30.27,SSE,149,4.0,5.4,85,0.00,,,0.09,0.027,,2013-03-07 02:41:00,
2013-03-06 20:51:00,16.6,-99.9,30.27,ESE,116,3.0,5.4,85,0.00,,,0.09,0.007,,2013-03-07 02:51:00,
2013-03-06 21:01:00,16.5,-99.9,30.27,East,90,4.0,8.8,85,0.00,,,0.09,0.024,,2013-03-07 03:01:00,
2013-03-06 21:11:00,16.4,-99.9,30.27,East,96,3.0,5.4,86,0.00,,,0.09,0.01,,2013-03-07 03:11:00,
2013-03-06 21:21:00,16.3,-99.9,30.26,ESE,109,6.0,12.1,86,0.00,,,0.09,0.003,,2013-03-07 03:21:00,
2013-03-06 21:31:00,16.0,-99.9,30.26,ESE,118,2.0,5.4,86,0.00,,,0.09,0.003,,2013-03-07 03:31:00,
2013-03-06 21:41:00,15.6,-99.9,30.26,ESE,120,5.0,7.1,87,0.00,,,0.09,0,,2013-03-07 03:41:00,
2013-03-06 21:51:00,15.6,-99.9,30.27,SSE,149,1.0,3.8,87,0.00,,,0.09,0.014,,2013-03-07 03:51:00,
2013-03-06 22:01:00,15.4,-99.9,30.25,SE,135,2.0,3.8,86,0.00,,,0.09,0.014,,2013-03-07 04:01:00,
2013-03-06 22:11:00,15.1,-99.9,30.25,ENE,76,1.0,3.8,87,0.00,,,0.09,0,,2013-03-07 04:11:00,
2013-03-06 22:21:00,14.9,-99.9,30.24,ESE,104,1.0,3.8,87,0.00,,,0.09,0,,2013-03-07 04:21:00,
2013-03-06 22:31:00,14.4,-99.9,30.25,East,81,4.0,7.1,87,0.00,,,0.09,0,,2013-03-07 04:31:00,
2013-03-06 22:41:00,13.5,-99.9,30.24,ESE,110,4.0,7.1,88,0.00,,,0.09,0,,2013-03-07 04:41:00,
2013-03-06 22:51:00,12.9,-99.9,30.24,ENE,73,2.0,3.8,88,0.00,,,0.09,0,,2013-03-07 04:51:00,
2013-03-06 23:01:00,12.6,-99.9,30.25,ENE,64,1.0,3.8,89,0.00,,,0.09,0,,2013-03-07 05:01:00,
2013-03-06 23:11:00,12.4,-99.9,30.25,SE,124,4.0,7.1,90,0.00,,,0.09,0,,2013-03-07 05:11:00,
2013-03-06 23:21:00,11.6,-99.9,30.25,SE,134,3.0,3.8,89,0.00,,,0.09,0,,2013-03-07 05:21:00,
2013-03-06 23:31:00,11.1,-99.9,30.25,NNE,33,0.0,2.1,90,0.00,,,0.09,0,,2013-03-07 05:31:00,
2013-03-06 23:41:00,10.8,-99.9,30.25,ESE,110,3.0,5.4,91,0.00,,,0.09,0,,2013-03-07 05:41:00,
2013-03-06 23:51:00,11.1,-99.9,30.24,SSE,158,2.0,3.8,90,0.00,,,0.09,0,,2013-03-07 05:51:00,